Weather reports worldwide

Advertisment
Gudja, Malta (16599): temperature & dewpoint: 17.10.2020 01:00:00 - 23.10.2020 01:00:00 (CEST)Gudja, Malta (16599): wind speed: 17.10.2020 01:00:00 - 23.10.2020 01:00:00 (CEST)Gudja, Malta (16599): wind direction: 17.10.2020 01:00:00 - 23.10.2020 01:00:00 (CEST)Gudja, Malta (16599): reduced air pressure: 17.10.2020 01:00:00 - 23.10.2020 01:00:00 (CEST)Gudja, Malta (16599): visibility: 17.10.2020 01:00:00 - 23.10.2020 01:00:00 (CEST)
Date & Time tt [°C] td [°C] ff [km/h] ff [kn] dd ppp [hPa] vv [km]
23.10.2020 01:00:00 - - - - - - -
23.10.2020 00:00:00 - - - - - - -
22.10.2020 23:00:00 15,4 12,0 4 2 NW 1024,8 35
22.10.2020 22:00:00 - - - - - - -
22.10.2020 21:00:00 - - - - - - -
22.10.2020 20:00:00 17,8 12,4 4 2 SSE 1024,5 40
22.10.2020 19:00:00 - - - - - - -
22.10.2020 18:00:00 - - - - - - -
22.10.2020 17:00:00 21,1 13,0 9 5 SE 1023,7 55
22.10.2020 16:00:00 - - - - - - -
22.10.2020 15:00:00 - - - - - - -
22.10.2020 14:00:00 22,0 12,2 9 5 SE 1024,4 50
22.10.2020 13:00:00 - - - - - - -
22.10.2020 12:00:00 - - - - - - -
22.10.2020 11:00:00 21,6 12,2 13 7 E 1025,7 50
22.10.2020 10:00:00 - - - - - - -
22.10.2020 09:00:00 - - - - - - -
22.10.2020 08:00:00 16,1 11,9 4 2 NE 1024,9 18
22.10.2020 07:00:00 - - - - - - -
22.10.2020 06:00:00 - - - - - - -
22.10.2020 05:00:00 15,5 12,5 5 3 E 1024,3 40
22.10.2020 04:00:00 - - - - - - -
22.10.2020 03:00:00 - - - - - - -
22.10.2020 02:00:00 16,0 12,1 5 3 SE 1024,9 50
22.10.2020 01:00:00 - - - - - - -
22.10.2020 00:00:00 - - - - - - -
21.10.2020 23:00:00 17,3 11,6 9 5 SE 1024,9 50
21.10.2020 22:00:00 - - - - - - -
21.10.2020 21:00:00 - - - - - - -
21.10.2020 20:00:00 18,3 12,2 9 5 SE 1024,4 50
21.10.2020 19:00:00 - - - - - - -
21.10.2020 18:00:00 - - - - - - -
21.10.2020 17:00:00 21,2 12,6 15 8 SE 1023,4 60
21.10.2020 16:00:00 - - - - - - -
21.10.2020 15:00:00 - - - - - - -
21.10.2020 14:00:00 21,8 13,9 18 10 ESE 1024,1 50
21.10.2020 13:00:00 - - - - - - -
21.10.2020 12:00:00 - - - - - - -
21.10.2020 11:00:00 21,5 13,4 15 8 ESE 1025,0 55
21.10.2020 10:00:00 - - - - - - -
21.10.2020 09:00:00 - - - - - - -
21.10.2020 08:00:00 17,2 13,1 8 4 E 1023,8 28
21.10.2020 07:00:00 - - - - - - -
21.10.2020 06:00:00 - - - - - - -
21.10.2020 05:00:00 16,5 12,8 8 4 ESE 1023,4 60
21.10.2020 04:00:00 - - - - - - -
21.10.2020 03:00:00 - - - - - - -
21.10.2020 02:00:00 17,0 13,5 11 6 E 1024,3 55
21.10.2020 01:00:00 - - - - - - -
21.10.2020 00:00:00 - - - - - - -
20.10.2020 23:00:00 16,2 13,7 8 4 ENE 1024,7 40
20.10.2020 22:00:00 - - - - - - -
20.10.2020 21:00:00 - - - - - - -
20.10.2020 20:00:00 18,0 13,6 9 5 E 1023,8 55
20.10.2020 19:00:00 - - - - - - -
20.10.2020 18:00:00 - - - - - - -
20.10.2020 17:00:00 20,1 14,0 13 7 E 1023,6 35
20.10.2020 16:00:00 - - - - - - -
20.10.2020 15:00:00 - - - - - - -
20.10.2020 14:00:00 20,8 14,3 13 7 E 1024,1 35
20.10.2020 13:00:00 - - - - - - -
20.10.2020 12:00:00 - - - - - - -
20.10.2020 11:00:00 21,5 14,7 13 7 ENE 1024,6 25
20.10.2020 10:00:00 - - - - - - -
20.10.2020 09:00:00 - - - - - - -
20.10.2020 08:00:00 18,2 13,4 8 4 ENE 1023,7 18
20.10.2020 07:00:00 - - - - - - -
20.10.2020 06:00:00 - - - - - - -
20.10.2020 05:00:00 18,4 14,1 5 3 ENE 1023,2 50
20.10.2020 04:00:00 - - - - - - -
20.10.2020 03:00:00 - - - - - - -
20.10.2020 02:00:00 18,2 14,1 9 5 ENE 1023,3 45
20.10.2020 01:00:00 - - - - - - -
20.10.2020 00:00:00 - - - - - - -
19.10.2020 23:00:00 18,5 15,4 15 8 NE 1023,5 12
19.10.2020 22:00:00 - - - - - - -
19.10.2020 21:00:00 - - - - - - -
19.10.2020 20:00:00 18,8 14,3 8 4 NNE 1022,7 40
19.10.2020 19:00:00 - - - - - - -
19.10.2020 18:00:00 - - - - - - -
19.10.2020 17:00:00 20,2 13,9 11 6 ENE 1022,0 55
19.10.2020 16:00:00 - - - - - - -
19.10.2020 15:00:00 - - - - - - -
19.10.2020 14:00:00 19,4 15,0 15 8 ENE 1022,0 45
19.10.2020 13:00:00 - - - - - - -
19.10.2020 12:00:00 - - - - - - -
19.10.2020 11:00:00 18,9 14,9 11 6 NE 1022,6 35
19.10.2020 10:00:00 - - - - - - -
19.10.2020 09:00:00 - - - - - - -
19.10.2020 08:00:00 16,3 14,8 18 10 N 1021,2 8
19.10.2020 07:00:00 - - - - - - -
19.10.2020 06:00:00 - - - - - - -
19.10.2020 05:00:00 17,1 13,0 8 4 WNW 1020,3 50
19.10.2020 04:00:00 - - - - - - -
19.10.2020 03:00:00 - - - - - - -
19.10.2020 02:00:00 16,8 12,8 9 5 WNW 1020,7 55
19.10.2020 01:00:00 - - - - - - -
19.10.2020 00:00:00 - - - - - - -
18.10.2020 23:00:00 17,6 12,1 11 6 NW 1020,7 55
18.10.2020 22:00:00 - - - - - - -
18.10.2020 21:00:00 - - - - - - -
18.10.2020 20:00:00 18,8 12,2 13 7 NW 1019,6 55
18.10.2020 19:00:00 - - - - - - -
18.10.2020 18:00:00 - - - - - - -
18.10.2020 17:00:00 20,4 13,3 22 12 NW 1018,9 55
18.10.2020 16:00:00 - - - - - - -
18.10.2020 15:00:00 - - - - - - -
18.10.2020 14:00:00 21,8 10,8 26 14 NNW 1019,0 50
18.10.2020 13:00:00 - - - - - - -
18.10.2020 12:00:00 - - - - - - -
18.10.2020 11:00:00 21,0 11,6 28 15 NNW 1019,5 50
18.10.2020 10:00:00 - - - - - - -
18.10.2020 09:00:00 - - - - - - -
18.10.2020 08:00:00 16,6 10,5 9 5 WNW 1018,2 40
18.10.2020 07:00:00 - - - - - - -
18.10.2020 06:00:00 - - - - - - -
18.10.2020 05:00:00 15,5 9,4 15 8 NNW 1017,7 55
18.10.2020 04:00:00 - - - - - - -
18.10.2020 03:00:00 - - - - - - -
18.10.2020 02:00:00 16,7 10,3 18 10 NW 1018,6 55
18.10.2020 01:00:00 - - - - - - -
18.10.2020 00:00:00 - - - - - - -
17.10.2020 23:00:00 17,1 10,1 13 7 WNW 1018,5 45
17.10.2020 22:00:00 - - - - - - -
17.10.2020 21:00:00 - - - - - - -
17.10.2020 20:00:00 17,5 12,0 13 7 NW 1017,9 45
17.10.2020 19:00:00 - - - - - - -
17.10.2020 18:00:00 - - - - - - -
17.10.2020 17:00:00 19,8 11,3 22 12 NNW 1016,9 45
17.10.2020 16:00:00 - - - - - - -
17.10.2020 15:00:00 - - - - - - -
17.10.2020 14:00:00 21,7 10,1 21 11 N 1016,9 50
17.10.2020 13:00:00 - - - - - - -
17.10.2020 12:00:00 - - - - - - -
17.10.2020 11:00:00 20,6 10,2 26 14 N 1017,4 45
17.10.2020 10:00:00 - - - - - - -
17.10.2020 09:00:00 - - - - - - -
17.10.2020 08:00:00 17,5 10,2 16 9 NNW 1015,6 45
17.10.2020 07:00:00 - - - - - - -
17.10.2020 06:00:00 - - - - - - -
17.10.2020 05:00:00 15,8 10,9 11 6 NNW 1015,4 50
17.10.2020 04:00:00 - - - - - - -
17.10.2020 03:00:00 - - - - - - -
17.10.2020 02:00:00 16,8 11,5 18 10 NW 1016,2 55
17.10.2020 01:00:00 - - - - - - -

tt = temperature
td = dewpoint
ff = wind speed
dd = wind direction
ppp = reduced air pressure
vv = visibility

Next stations